sat.trackr.live / text

‹ back to catalog

STARLINK-4517

NORAD 53390 · 2022-097C

PAYLOAD ACTIVE UNKNOWN

§ Identity

Operator
Country
US
Launch date
2022-08-10
Launch site
AFETR
Launch vehicle
Mass (kg)
RCS (m²)

Purposes: comms

External: N2YO · Heavens-Above · Gunter

§ Orbital elements

Epoch: 2026-09-19T19:56:53.131200Z

Period
93.79 min
Inclination
53.1602°
Eccentricity
0.0001143
Mean motion
15.35392122 rev/d
Perigee alt
459.0 km
Apogee alt
460.5 km
Semi-major
6,837.9 km
B*
2.0380e-5
RAAN
325.2226°
Arg perigee
75.0961°
Mean anomaly
285.0169°
Rev number
22,822

§ Raw data

STARLINK-45171 53390U 22097C   26262.83117050  .00000330  00000+0  20380-4 0  99952 53390  53.1602 325.2226 0001143  75.0961 285.0169 15.35392122228228

JSON: /api/v1/satellites/53390 · /tle

For live sub-satellite position, see the globe view (requires WebGL).

§ Visibility from observer

Set your observer location to see the next 7 days of passes ≥ 10°. The values pass through the URL so the page stays shareable.

No JS? Fill the form by hand. The geolocation button needs JavaScript.